SLLP Airport Information

Runway Information
Runway 10 Length 13123 ft width 151 ft
Elevation 13110 ft Threshold 0 ft Heading 92
Runway 28 Length 13123 ft Width 151 ft
Elevation 13314 ft Threshold 0 ft Heading 272
Runway 10L Length 6725 ft width 300 ft
Elevation 13202 ft Threshold 0 ft Heading 98
Runway 28R Length 6725 ft Width 300 ft
Elevation 13307 ft Threshold 0 ft Heading 278
Airport Frequencies
Type APP Name LA PAZ APP Frequency 119.5 MHZ
Type GCCD Name GND Frequency 121.9 MHZ
Type INFO Name LA PAZ FIS Frequency 127.1 MHZ
Type RDO Name LA PAZ RDO Frequency 662.2 MHZ
Type TWR Name LA PAZ TWR Frequency 118.3 MHZ
Airport Navaids
Type NDB Name La Paz Frequency 350 KHZ
Type VOR-DME Name La Paz Frequency 115700 KHZ
Airport Weather Information & NOTAM
ADDS - METARS form results

(1923 UTC 19 July 2018)
 
METAR text: SLLP 191900Z 30013G23KT 260V330 9999 FEW020 FEW023CB 14/M04 Q1033
Conditions at: SLLP (LA PAZ/JFK INTL , BO) observed 1900 UTC 19 July 2018
Temperature: 14.0°C (57°F)
Dewpoint: -4.0°C (25°F) [RH = 28%]
Pressure (altimeter): 30.50 inches Hg (1033.0 mb)
Winds: from the WNW (300 degrees) at 15 MPH (13 knots; 6.8 m/s)
gusting to 26 MPH (23 knots; 12.0 m/s)
Visibility: 6 or more miles (10+ km)
Ceiling: at least 12,000 feet AGL
Clouds: few clouds at 2000 feet AGL
few clouds at 2300 feet AGL
Weather: no significant weather observed at this time